Location: Arcusa
(42.3167°N, 0.0833°W)
Time: 01:20:21
(UTC+00:00)

ATLAS 2AS CENTAUR R/B - Pass Details

Date: 25 January 2020
Orbit: 927 x 1285 km, 63.7° (Epoch: 21 February)

Event Time Altitude Azimuth Distance (km) Brightness Sun altitude
Exits shadow 04:37:52 35° 199° (SSW) 1,951 3.8 -30.0°
Maximum altitude 04:41:42 76° 121° (ESE) 1,321 3.1 -29.3°
Drops below altitude 10° 04:49:42 10° 38° (NE) 3,276 5.6 -27.8°
Sets 04:52:30 0° 37° (NE) 4,228 6.3 -27.3°
